Regional Weather Roundup
Issued by NWS Green Bay, WI

Home | Current Version | Previous Version | Text Only | Print | Product List | Glossary On
Versions: 1 2 3 4 5 6 7 8 9 10 11 12 13 14 15 16 17 18 19 20 21 22 23 24 25 26 27 28 29 30 31 32 33 34 35 36 37 38 39 40 41 42 43 44 45 46 47 48 49 50
000
ASUS43 KGRB 222210
RWRGRB

NORTH-CENTRAL AND NORTHEAST WISCONSIN REGIONAL WEATHER ROUNDUP
NATIONAL WEATHER SERVICE GREEN BAY WI
500 PM CDT TUE JUL 22 2014

WIZ005-009-010>012-018-019-222300-
NORTH CENTRAL WISCONSIN

CITY           SKY/WX    TMP DP  RH WIND       PRES   REMARKS
IRONWOOD       CLOUDY    66  57  72 N7        30.03R
MANITOWISH WTR CLOUDY    65  63  91 N12G23    30.05R
ARBOR VITAE    LGT RAIN  69  65  85 NW12G20   30.04R
EAGLE RIVER    LGT RAIN  69  60  73 NW16G23   30.02R
LAND O LAKES   DRIZZLE   66  63  89 N10G18    30.04R
RHINELANDER    CLOUDY    71  63  75 NW9       30.03R
PHILLIPS       CLOUDY    73  62  68 N13G18    30.03R
ANTIGO         CLOUDY    76  65  67 NW17G24   29.99R
TOMAHAWK       CLOUDY    74  63  67 NW7       30.03R
MERRILL        MOSUNNY   77  65  65 N13G21    30.00R
$$

WIZ013-073-222300-
NORTHEAST WISCONSIN

CITY           SKY/WX    TMP DP  RH WIND       PRES   REMARKS
IRON MOUNTAIN  CLOUDY    76  62  62 NW14      29.95R
MARINETTE      PTSUNNY   88  66  48 N14G23    29.87R HX  90
OCONTO         PTSUNNY   88  67  49 N13G18    29.87R HX  90
$$

WIZ017-030-035>037-045-222300-
CENTRAL WISCONSIN

CITY           SKY/WX    TMP DP  RH WIND       PRES   REMARKS
MEDFORD        PTSUNNY   75  65  70 NW10G16   30.02S
WAUSAU         PTSUNNY   82  65  56 N16G24    29.96R
MOSINEE        MOSUNNY   82  64  54 NW13G20   29.98
MARSHFIELD     MOSUNNY   81  65  58 NW18      29.99R
WISC RAPIDS    MOSUNNY   87  66  49 NW17      29.98R
STEVENS POINT  PTSUNNY   81  64  56 NW9G18    29.97R
WAUPACA        SUNNY     91  62  38 NW15      29.92R HX  91
SHAWANO        PTSUNNY   90  64  43 NW10G17   29.91R HX  91
CLINTONVILLE   SUNNY     88  61  40 NW13      29.91R
$$

WIZ038-039-048-051-222300-
FOX VALLEY

CITY           SKY/WX    TMP DP  RH WIND       PRES   REMARKS
NWS GREEN BAY  SUNNY     90  67  46 NW15      29.89R HX  93
APPLETON       MOSUNNY   90  64  43 NW14      29.91R HX  91
OSHKOSH        PTSUNNY   88  71  57 NW17G24   29.90R HX  94
FOND DU LAC    MOSUNNY   91  73  55 W10G18    29.89F HX  99
$$

WIZ022-050-052-222300-
EAST CENTRAL WISCONSIN

CITY           SKY/WX    TMP DP  RH WIND       PRES   REMARKS
STURGEON BAY   SUNNY     88  66  48 NW13G18   29.88R HX  90
MANITOWOC      MOSUNNY   90  74  59 W9        29.87S HX  99
SHEBOYGAN      SUNNY     90  74  59 W12G17    29.88F HX  99
$$

LMZ563-521-522-541>543-222300-
LAKESHORE

STATION/POSITION TIME  TEMP    WIND        PRES    VSBY  WAVE
                       AIR SEA DIR/SP/G                  HT/PER
                 (UTC) (F)     (DEG/KT/KT) (MB)    (MI)  (FT/S)
SHEBOYGAN LKSHOR 2200   79     190/  5/  8 1011.4F
KEWAUNEE LKSHORE 2200   55     160/  5/  5 1012.0R
TWO RIVERS CG    2100   62                   N/A       6   2
NORTHPORT PIER   2200   76      50/  2/  7 1011.2R
N MID LAKE BUOY  2200   62 59  230/ 10/ 10 1010.8R         5/ 6
STURGEON BAY CG  2100   56 50  180/ 11     1010.7   3 1/2  2
CHAMBERS ISLAND  2200   81     300/ 10/ 15 1011.2R
MENOMINEE LKSHOR 2200   70     320/ 16/ 20 1012.1R
$$


USA.gov is the U.S. government's official web portal to all federal, state and local government web resources and services.